Regional Weather Roundup
Issued by NWS Upton, NY

Current Version | Previous Version | Graphics & Text | Print | Product List | Glossary Off
Versions: 1 2 3 4 5 6 7 8 9 10 11 12 13 14 15 16 17 18 19 20 21 22 23 24 25 26 27 28 29 30 31 32 33 34 35 36 37 38 39 40 41 42 43 44 45 46 47 48 49 50

000
ASUS41 KOKX 022205
RWROKX

REGIONAL WEATHER ROUNDUP
NATIONAL WEATHER SERVICE NEW YORK NY
500 PM EST MON MAR 02 2015

NOTE: "FAIR" INDICATES FEW OR NO CLOUDS BELOW 12,000 FEET WITH NO
SIGNIFICANT WEATHER AND/OR OBSTRUCTIONS TO VISIBILITY.

NYZ071-072-176-178-NJZ106-104-022300-
NEW YORK CITY METRO AREA


CITY           SKY/WX    TMP DP  RH WIND       PRES   REMARKS
CENTRAL PARK   CLEAR     38  11  32 VRB7G20   30.19R WCI  33
LAGUARDIA APRT CLEAR     37  13  37 NW20G25   30.17R WCI  27
KENNEDY INTL   CLEAR     38  12  34 NW17      30.18R WCI  28
NEWARK/LIBERTY PTCLDY    37  13  37 NW21G31   30.18R WCI  26
BRNX BOT. GARD   N/A    N/A N/A N/A N16       30.17S
TETERBORO      CLEAR     37  11  34 NW16G23   30.17R WCI  28
$$

NYZ177-179-078>081-022300-
LONG ISLAND NEW YORK

CITY           SKY/WX    TMP DP  RH WIND       PRES   REMARKS
FARMINGDALE    CLEAR     36  13  38 NW16G28   30.16R WCI  26
ISLIP          CLEAR     35  14  42 NW16G29   30.13R WCI  25
SHIRLEY        CLEAR     35  14  42 NW18G25   30.14R WCI  24
WESTHAMPTON    CLEAR     36  13  38 NW16G23   30.14R WCI  26
MONTAUK POINT  NOT AVBL
$$

NYZ052-065-067-022300-
HUDSON VALLEY

CITY           SKY/WX    TMP DP  RH WIND       PRES   REMARKS
WHITE PLAINS   CLEAR     33  12  41 NW18G25   30.13R WCI  22
NEWBURGH       PTCLDY    32  16  51 NW18G29   30.17R WCI  20
MONTGOMERY     CLEAR     32  11  41 NW15G31   30.16R WCI  22
POUGHKEEPSIE   CLEAR     34  10  37 W9        30.17R WCI  27
ALBANY         FLURRIES  28  14  55 NW16G36   30.17R WCI  16
$$

NJZ001-105-106-008-010-013-015-019>022-104-022300-
NEW JERSEY

CITY           SKY/WX    TMP DP  RH WIND       PRES   REMARKS
NEWARK/LIBERTY PTCLDY    37  13  37 NW21G31   30.18R WCI  26
TETERBORO      CLEAR     37  11  34 NW16G23   30.17R WCI  28
CALDWELL       CLEAR     36  11  35 NW9       30.19R WCI  29
MORRISTOWN     CLEAR     37   9  30 NW12G28   30.19R WCI  30
SOMERVILLE     CLEAR     38   9  30 NW17G28   30.18R WCI  28
SUSSEX         CLEAR     34   9  35 NW10G23   30.19R WCI  26
ANDOVER          N/A     33   8  35 N13G24    30.18R WCI  24
TRENTON        CLEAR     38  13  35 NW15G24   30.21R WCI  29
MILLVILLE      CLEAR     37  16  42 NW10G25   30.25R WCI  30
ATLANTIC CITY  CLEAR     38  18  44 NW14      30.23R WCI  30
WRIGHTSTOWN    CLEAR     37  15  40 NW16G22   30.19R WCI  27
TOMS RIVER     CLEAR     37  16  41 NW15G25   30.21R WCI  28
BELMAR         CLEAR     37  16  41 NW16G22   30.18R WCI  28
$$

PAZ047>061-062-071-022300-
EASTERN PENNSYLVANIA

CITY           SKY/WX    TMP DP  RH WIND       PRES   REMARKS
PHILADELPHIA   PTCLDY    39  13  34 NW21G28   30.27R WCI  29
ALLENTOWN      CLEAR     36  13  38 W17       30.21R WCI  26
SCRANTON       CLEAR     31   9  39 NW14G23   30.22R WCI  21
$$

CTZ002-004>006-009-010-012-RIZ004-006-007-MAZ004-011-015-022300-
SOUTHERN NEW ENGLAND
 IN CT

CITY           SKY/WX    TMP DP  RH WIND       PRES   REMARKS
BRADLEY INTL   MOCLDY    33  13  43 NW28G33   30.11R WCI  20
HARTFORD       PTCLDY    33  10  38 NW15G31   30.13R WCI  23
DANBURY        CLEAR     32   8  36 NW15G29   30.13R WCI  22
WTRBRY/OXFORD  PTCLDY    32   9  37 NW12G23   30.10R WCI  23
BRIDGEPORT     CLEAR     35  12  38 NW21G30   30.13R WCI  24
MERIDEN        CLEAR     34  11  38 NW14      30.13R WCI  25
NEW HAVEN      CLEAR     36  11  35 NW14G24   30.13R WCI  27
CHESTER        FAIR      34  10  37 NW10G24   30.09R WCI  26
GROTON         CLEAR     33  12  41 NW20G25   30.09R WCI  21
WILLIMANTIC    MIX PCPN  32  12  43 NW13G28   30.08R WCI  22

 IN RI

CITY           SKY/WX    TMP DP  RH WIND       PRES   REMARKS
PROVIDENCE     PTCLDY    33  12  41 NW16G29   30.06R WCI  23
BLOCK ISLAND   CLEAR     34  14  44 NW8G21    30.07R WCI  27
WESTERLY       CLEAR     35  12  38 NW13G20   30.09R WCI  26

 IN MA

CITY           SKY/WX    TMP DP  RH WIND       PRES   REMARKS
BOSTON         MOCLDY    33  12  41 W21G29    30.02R WCI  21
WORCESTER      PTCLDY    27  10  49 W23G36    29.99R WCI  12
WESTFIELD      MOCLDY    30  10  43 NW16G26   30.11R WCI  19
PROVINCETOWN   CLEAR     34  16  47 W24       30.00R WCI  21
NANTUCKET      CLEAR     34  16  47 W15G26    30.02R WCI  24
$$

ANZ330-335-338-340-345-350-353-355-022300-
COASTAL MARINE OBSERVATIONS


STATION/POSITION TIME  SKY/WX   TEMP    WIND        PRES    VSBY  WAVE
                                AIR SEA DIR/SP/G                  HT/PER
                 (UTC)          (F)     (DEG/KT/KT) (MB)    (MI)  (FT/S)
NY HARB ENTRANCE 2200            38 38  300/ 17/ 21 1021.6          3/ 4
4S FIRE IS       2200               32                N/A           4/ 9
20S FIRE ISLAND  2100               37              1021.4          5/ 9
23SW MTP         2200                                 N/A           5/ 9
HUDSON CANYON    NOT AVBL
EXECUTION ROCKS  NOT AVBL
WESTERN LI SOUND NOT AVBL
CENTRAL LI SOUND NOT AVBL
EASTERN LI SOUND NOT AVBL
ROBBINS REEF     2200            37     320/ 16/ 19 1020.7
$$


>>>>>>>>>>>>>>>>>>>>>>>>>>>> KEY <<<<<<<<<<<<<<<<<<<<<<<<<<<
>                                                          <
>     SKY/WX - SKY CONDITION/PRESENT WEATHER               <
>     TMP    - TEMPERATURE IN FAHRENHEIT                   <
>     DP     - DEWPOINT IN FAHRENHEIT                      <
>     RH     - RELATIVE HUMIDITY IN PERCENT                <
>     WIND   - DIRECTION AND SPEED IN MPH                  <
>     PRES   - MEAN SEA LEVEL PRESSURE IN INCHES OF HG     <
>     WCI    - WIND CHILL INDEX                            <
>     VSB    - VISIBILITY IN MILES                         <
>     HX     - HEAT INDEX                                  <
>     TC     - TEMPERATURE IN CELSIUS                      <
>     VRB    - VARIABLE WIND DIRECTION                     <
>                                                          <
>>>>>>>>>>>>>>>>>>>>>>>>>>>> KEY <<<<<<<<<<<<<<<<<<<<<<<<<<<




USA.gov is the U.S. government's official web portal to all federal, state and local government web resources and services.